KLM706 EHRD-LEMG

Flight info

Callsign KLM706
Flight time N/A
Altitude 35000
Route WOODY N872 CIV DCT KOVIN DCT DUCRA DCT RESMI DCT DEKOD DCT DISAK DCT ARKIP DCT ARNAV DCT LMG DCT UVELI DCT OSMOB DCT ARVID DCT PPN DCT NOLSA DCT ALEPO DCT VASUM N10 BAN DCT GOTOR DCT KAMPO DCT MONTO DCT CRISA DCT VULPE
Aircraft A320/M-SDE3FGHIRWY/LB1

Departure

Time N/A
Airport Rotterdam The Hague Airport (EHRD)

Arrival

Time 2026-05-04 13:16
Airport Málaga-Costa del Sol Airport (LEMG)
Time Latitude Longitude Altitude Speed Heading
2026-05-04 10:28 51.14410 4.17238 23430 ft 405 kts 201°
2026-05-04 10:28 51.11748 4.15781 23760 ft 406 kts 201°
2026-05-04 10:28 51.09073 4.14313 24101 ft 407 kts 201°
2026-05-04 10:28 51.06388 4.12840 24418 ft 409 kts 201°
2026-05-04 10:29 51.03698 4.11365 24716 ft 410 kts 201°
2026-05-04 10:29 51.01017 4.09900 24999 ft 411 kts 201°
2026-05-04 10:29 50.98331 4.08435 25292 ft 413 kts 201°
2026-05-04 10:29 50.95638 4.06971 25554 ft 414 kts 201°
2026-05-04 10:30 50.92923 4.05499 25817 ft 415 kts 201°
2026-05-04 10:30 50.90184 4.04011 26082 ft 416 kts 201°
2026-05-04 10:30 50.87455 4.02522 26322 ft 417 kts 201°
2026-05-04 10:30 50.84728 4.00910 26568 ft 418 kts 203°
2026-05-04 10:31 50.82037 3.99192 26807 ft 418 kts 204°
2026-05-04 10:31 50.79347 3.97410 27015 ft 419 kts 204°
2026-05-04 10:32 50.63100 3.86878 28425 ft 419 kts 203°
2026-05-04 10:33 50.60398 3.85182 28680 ft 418 kts 202°
2026-05-04 10:33 50.57700 3.83486 28941 ft 417 kts 203°
2026-05-04 10:33 50.55034 3.81775 29210 ft 415 kts 204°
2026-05-04 10:33 50.52388 3.79999 29482 ft 414 kts 204°
2026-05-04 10:34 50.49760 3.78183 29765 ft 412 kts 205°
2026-05-04 10:34 50.47144 3.76355 30024 ft 411 kts 205°
2026-05-04 10:34 50.44547 3.74542 30288 ft 409 kts 205°
2026-05-04 10:34 50.41946 3.72746 30536 ft 408 kts 204°
2026-05-04 10:35 50.39345 3.70967 30773 ft 407 kts 204°
2026-05-04 10:35 50.36753 3.69210 31020 ft 406 kts 204°
2026-05-04 10:35 50.34170 3.67467 31258 ft 406 kts 204°
2026-05-04 10:35 50.31617 3.65744 31484 ft 405 kts 204°
2026-05-04 10:36 50.29030 3.63997 31709 ft 404 kts 204°
2026-05-04 10:36 50.26446 3.62254 31932 ft 403 kts 204°
2026-05-04 10:36 50.23871 3.60522 32165 ft 403 kts 204°
2026-05-04 10:36 50.21309 3.58799 32385 ft 402 kts 205°
2026-05-04 10:37 50.18742 3.57071 32594 ft 402 kts 205°
2026-05-04 10:37 50.16178 3.55347 32814 ft 401 kts 205°
2026-05-04 10:37 50.13617 3.53627 33039 ft 400 kts 205°
2026-05-04 10:37 50.11059 3.51909 33248 ft 399 kts 205°
2026-05-04 10:39 49.95819 3.41741 34419 ft 397 kts 204°
2026-05-04 10:39 49.93273 3.40051 34576 ft 398 kts 204°
2026-05-04 10:39 49.90728 3.38362 34719 ft 398 kts 204°
2026-05-04 10:40 49.88183 3.36672 34881 ft 399 kts 204°
2026-05-04 10:40 49.85633 3.34981 34987 ft 400 kts 204°
2026-05-04 10:40 49.83081 3.33290 35004 ft 402 kts 204°
2026-05-04 10:41 49.77934 3.29888 35003 ft 403 kts 204°
2026-05-04 10:41 49.72787 3.26502 35006 ft 403 kts 204°
2026-05-04 10:42 49.67638 3.23120 35014 ft 403 kts 204°
2026-05-04 10:42 49.62511 3.19746 35004 ft 403 kts 204°
2026-05-04 10:43 49.57355 3.16364 35012 ft 403 kts 204°
2026-05-04 10:45 49.37870 2.99739 34987 ft 403 kts 213°
2026-05-04 10:45 49.33204 2.95024 34993 ft 404 kts 213°
2026-05-04 10:46 49.28517 2.90288 34994 ft 404 kts 213°
2026-05-04 10:46 49.23822 2.85553 34998 ft 404 kts 213°
2026-05-04 10:47 49.19124 2.80826 35002 ft 404 kts 213°
2026-05-04 10:47 49.14443 2.76124 35002 ft 404 kts 212°
2026-05-04 10:49 48.95735 2.57468 34986 ft 403 kts 212°
2026-05-04 10:50 48.91808 2.53565 34985 ft 403 kts 212°
2026-05-04 10:52 48.73071 2.35052 34984 ft 403 kts 212°
2026-05-04 10:52 48.68372 2.30440 34986 ft 403 kts 212°
2026-05-04 10:54 48.51123 2.17341 34980 ft 403 kts 193°
2026-05-04 10:54 48.48383 2.16471 34981 ft 403 kts 193°
2026-05-04 10:56 48.26390 2.10450 34986 ft 407 kts 177°
2026-05-04 10:57 48.20820 2.11602 34986 ft 409 kts 174°
2026-05-04 10:57 48.15232 2.12766 34987 ft 408 kts 176°
2026-05-04 10:58 48.09616 2.12461 34990 ft 405 kts 188°
2026-05-04 10:58 48.04034 2.11388 35004 ft 405 kts 188°
2026-05-04 10:59 47.98442 2.10317 34994 ft 405 kts 188°
2026-05-04 10:59 47.92845 2.09243 35001 ft 405 kts 188°
2026-05-04 11:00 47.87248 2.08177 35003 ft 405 kts 188°
2026-05-04 11:02 47.64874 2.03927 34987 ft 404 kts 191°
2026-05-04 11:05 47.25445 1.81773 34972 ft 406 kts 201°
2026-05-04 11:06 47.20177 1.78751 34973 ft 406 kts 201°
2026-05-04 11:06 47.14893 1.75749 34974 ft 407 kts 201°
2026-05-04 11:10 46.77841 1.55032 34962 ft 408 kts 201°
2026-05-04 11:12 46.56583 1.43270 34971 ft 409 kts 201°
2026-05-04 11:12 46.51261 1.40340 34976 ft 409 kts 201°
2026-05-04 11:13 46.45927 1.37406 34982 ft 409 kts 200°
2026-05-04 11:13 46.40633 1.34510 34982 ft 409 kts 201°
2026-05-04 11:14 46.35308 1.31598 34982 ft 409 kts 200°
2026-05-04 11:16 46.14002 1.20016 34976 ft 409 kts 200°
2026-05-04 11:16 46.08705 1.17147 34974 ft 409 kts 200°
2026-05-04 11:17 46.03366 1.14264 34972 ft 410 kts 200°
2026-05-04 11:19 45.82070 1.02552 34978 ft 408 kts 209°
2026-05-04 11:19 45.77530 0.97686 34970 ft 408 kts 219°
2026-05-04 11:20 45.73209 0.92484 34962 ft 408 kts 218°
2026-05-04 11:20 45.68842 0.87281 34962 ft 409 kts 218°
2026-05-04 11:22 45.51327 0.66462 34953 ft 410 kts 218°
2026-05-04 11:23 45.46935 0.61257 34951 ft 411 kts 218°
2026-05-04 11:25 45.31528 0.43123 34956 ft 410 kts 218°
2026-05-04 11:25 45.27131 0.37958 34958 ft 410 kts 218°
2026-05-04 11:27 45.07351 0.14925 34956 ft 409 kts 218°
2026-05-04 11:28 45.02942 0.09820 34959 ft 409 kts 218°
2026-05-04 11:28 44.98539 0.04723 34962 ft 409 kts 218°
2026-05-04 11:29 44.94134 -0.00365 34969 ft 409 kts 218°
2026-05-04 11:29 44.89716 -0.05462 34955 ft 411 kts 218°
2026-05-04 11:33 44.57531 -0.39260 34963 ft 414 kts 208°
2026-05-04 11:33 44.52427 -0.43013 34962 ft 414 kts 208°
2026-05-04 11:34 44.47320 -0.46759 34962 ft 414 kts 208°
2026-05-04 11:34 44.42215 -0.50497 34966 ft 414 kts 208°
2026-05-04 11:35 44.37109 -0.54228 34971 ft 414 kts 208°
2026-05-04 11:35 44.32001 -0.57955 34975 ft 414 kts 208°
2026-05-04 11:36 44.26888 -0.61674 34976 ft 414 kts 208°
2026-05-04 11:36 44.21776 -0.65389 34976 ft 414 kts 208°
2026-05-04 11:37 44.17522 -0.68471 34978 ft 414 kts 208°
2026-05-04 11:37 44.12415 -0.72169 34979 ft 414 kts 208°
2026-05-04 11:38 44.07302 -0.75853 34980 ft 414 kts 208°
2026-05-04 11:38 44.02195 -0.79540 34979 ft 413 kts 208°
2026-05-04 11:39 43.97087 -0.83224 34982 ft 413 kts 208°
2026-05-04 11:41 43.79306 -0.95957 35000 ft 409 kts 208°
2026-05-04 11:41 43.74255 -0.99557 35004 ft 408 kts 208°
2026-05-04 11:42 43.69212 -1.03152 34988 ft 408 kts 208°
2026-05-04 11:42 43.64175 -1.06744 34985 ft 407 kts 208°
2026-05-04 11:43 43.59163 -1.10296 34985 ft 407 kts 208°
2026-05-04 11:43 43.54111 -1.13852 34988 ft 407 kts 208°
2026-05-04 11:44 43.49066 -1.17418 34994 ft 407 kts 208°
2026-05-04 11:44 43.44029 -1.20973 34995 ft 407 kts 208°
2026-05-04 11:45 43.38995 -1.24512 35003 ft 406 kts 208°
2026-05-04 11:45 43.33966 -1.28056 35003 ft 406 kts 208°
2026-05-04 11:46 43.28929 -1.31589 35010 ft 406 kts 208°
2026-05-04 11:46 43.23898 -1.35108 35022 ft 406 kts 209°
2026-05-04 11:47 43.18869 -1.38625 35021 ft 405 kts 208°
2026-05-04 11:47 43.13886 -1.42101 35014 ft 404 kts 208°
2026-05-04 11:48 43.08869 -1.45593 35018 ft 404 kts 209°
2026-05-04 11:48 43.03858 -1.49077 35017 ft 404 kts 209°
2026-05-04 11:49 42.98852 -1.52563 35009 ft 404 kts 209°
2026-05-04 11:49 42.93840 -1.56043 35005 ft 404 kts 209°
2026-05-04 11:50 42.88841 -1.59511 35001 ft 403 kts 209°
2026-05-04 11:50 42.83837 -1.62974 35002 ft 402 kts 209°
2026-05-04 11:51 42.78848 -1.66414 35003 ft 401 kts 209°
2026-05-04 11:51 42.73878 -1.69842 35000 ft 400 kts 209°
2026-05-04 11:52 42.68895 -1.73239 34991 ft 400 kts 209°
2026-05-04 11:52 42.63907 -1.76584 34996 ft 399 kts 209°
2026-05-04 11:53 42.58929 -1.79912 35003 ft 398 kts 209°
2026-05-04 11:53 42.53966 -1.83235 34993 ft 398 kts 209°
2026-05-04 11:55 42.34216 -1.96431 34993 ft 396 kts 209°
2026-05-04 11:56 42.29276 -1.99722 34988 ft 395 kts 209°
2026-05-04 11:56 42.24347 -2.02996 34994 ft 395 kts 209°
2026-05-04 11:57 42.19417 -2.06253 34985 ft 395 kts 209°
2026-05-04 11:57 42.14484 -2.09501 34984 ft 394 kts 209°
2026-05-04 11:58 42.09566 -2.12754 34984 ft 394 kts 209°
2026-05-04 11:58 42.04646 -2.15995 34984 ft 394 kts 209°
2026-05-04 11:59 41.99722 -2.19227 34984 ft 394 kts 209°
2026-05-04 11:59 41.94796 -2.22464 34984 ft 394 kts 209°
2026-05-04 12:00 41.89871 -2.25694 34985 ft 394 kts 209°
2026-05-04 12:00 41.84949 -2.28920 34985 ft 393 kts 209°
2026-05-04 12:01 41.80025 -2.32128 34981 ft 394 kts 209°
2026-05-04 12:02 41.62798 -2.43337 35002 ft 394 kts 209°
2026-05-04 12:03 41.57857 -2.46541 35004 ft 395 kts 208°
2026-05-04 12:03 41.52900 -2.49745 35000 ft 396 kts 208°
2026-05-04 12:04 41.47930 -2.52951 35007 ft 397 kts 208°
2026-05-04 12:04 41.42943 -2.56165 35010 ft 398 kts 208°
2026-05-04 12:05 41.37952 -2.59377 35015 ft 398 kts 208°
2026-05-04 12:05 41.32961 -2.62606 35012 ft 398 kts 211°
2026-05-04 12:06 41.28363 -2.66652 35017 ft 396 kts 216°
2026-05-04 12:06 41.23835 -2.70835 35009 ft 396 kts 216°
2026-05-04 12:07 41.19302 -2.74998 35014 ft 396 kts 216°
2026-05-04 12:07 41.14791 -2.79127 35012 ft 397 kts 216°
2026-05-04 12:08 41.10251 -2.83284 35010 ft 396 kts 216°
2026-05-04 12:08 41.05705 -2.87444 35015 ft 397 kts 217°
2026-05-04 12:09 41.01159 -2.91600 35015 ft 397 kts 216°
2026-05-04 12:09 40.96611 -2.95745 35008 ft 397 kts 217°
2026-05-04 12:10 40.92061 -2.99889 35008 ft 397 kts 217°
2026-05-04 12:10 40.87509 -3.04034 35013 ft 397 kts 217°
2026-05-04 12:11 40.82945 -3.08170 35013 ft 398 kts 217°
2026-05-04 12:11 40.78370 -3.12301 35012 ft 398 kts 217°
2026-05-04 12:12 40.73835 -3.16404 35015 ft 397 kts 217°
2026-05-04 12:12 40.69273 -3.20531 35010 ft 397 kts 217°
2026-05-04 12:14 40.51039 -3.36917 35007 ft 396 kts 217°
2026-05-04 12:15 40.46517 -3.40962 35011 ft 396 kts 217°
2026-05-04 12:15 40.41971 -3.45022 35003 ft 395 kts 217°
2026-05-04 12:16 40.37421 -3.49084 35005 ft 395 kts 217°
2026-05-04 12:16 40.32870 -3.53131 35008 ft 395 kts 217°
2026-05-04 12:17 40.28320 -3.57169 35002 ft 394 kts 217°
2026-05-04 12:17 40.23782 -3.61204 34997 ft 394 kts 217°
2026-05-04 12:18 40.19243 -3.65226 35000 ft 394 kts 217°
2026-05-04 12:18 40.14698 -3.69239 35005 ft 394 kts 217°
2026-05-04 12:19 40.10155 -3.73251 35007 ft 394 kts 217°
2026-05-04 12:19 40.05637 -3.77234 35003 ft 394 kts 217°
2026-05-04 12:20 40.01095 -3.81236 35009 ft 394 kts 218°
2026-05-04 12:20 39.96553 -3.85235 35008 ft 393 kts 217°
2026-05-04 12:21 39.92011 -3.89223 35014 ft 393 kts 217°
2026-05-04 12:21 39.87466 -3.93203 35011 ft 394 kts 217°
2026-05-04 12:22 39.82922 -3.97179 35021 ft 393 kts 217°
2026-05-04 12:22 39.78376 -4.01150 35014 ft 393 kts 217°
2026-05-04 12:23 39.73830 -4.05109 35020 ft 393 kts 217°
2026-05-04 12:23 39.69307 -4.09038 35015 ft 394 kts 217°
2026-05-04 12:24 39.64756 -4.12998 35017 ft 394 kts 217°
2026-05-04 12:24 39.60214 -4.16946 35017 ft 394 kts 217°
2026-05-04 12:25 39.55637 -4.20909 35019 ft 395 kts 217°
2026-05-04 12:25 39.51837 -4.24189 35019 ft 394 kts 218°
2026-05-04 12:26 39.47270 -4.28126 35018 ft 394 kts 217°
2026-05-04 12:26 39.42714 -4.32059 35018 ft 394 kts 218°
2026-05-04 12:27 39.38143 -4.35994 35014 ft 394 kts 218°
2026-05-04 12:27 39.33570 -4.39921 35019 ft 395 kts 218°
2026-05-04 12:28 39.28979 -4.43853 35014 ft 396 kts 218°
2026-05-04 12:28 39.24386 -4.47765 35016 ft 397 kts 215°
2026-05-04 12:29 39.19170 -4.50346 35020 ft 411 kts 197°
2026-05-04 12:29 39.13503 -4.51527 35020 ft 413 kts 196°
2026-05-04 12:30 39.07871 -4.52697 35021 ft 413 kts 196°
2026-05-04 12:30 39.02196 -4.53888 35025 ft 413 kts 197°
2026-05-04 12:31 38.96519 -4.55082 35026 ft 413 kts 196°
2026-05-04 12:31 38.90837 -4.56268 35029 ft 413 kts 196°
2026-05-04 12:32 38.82318 -4.58044 35037 ft 413 kts 196°
2026-05-04 12:33 38.76640 -4.59234 35039 ft 413 kts 196°
2026-05-04 12:33 38.70961 -4.60416 35040 ft 413 kts 196°
2026-05-04 12:34 38.65278 -4.61588 35046 ft 413 kts 196°
2026-05-04 12:34 38.59606 -4.62757 35048 ft 413 kts 196°
2026-05-04 12:35 38.53969 -4.63920 35048 ft 413 kts 196°
2026-05-04 12:35 38.48298 -4.65095 35050 ft 413 kts 196°
2026-05-04 12:36 38.42630 -4.66270 35048 ft 413 kts 196°
2026-05-04 12:36 38.36955 -4.67434 35048 ft 413 kts 197°
2026-05-04 12:37 38.31288 -4.68592 35045 ft 413 kts 197°
2026-05-04 12:37 38.25614 -4.69762 35045 ft 413 kts 197°
2026-05-04 12:38 38.19944 -4.70929 35042 ft 413 kts 197°
2026-05-04 12:38 38.14266 -4.72083 35047 ft 413 kts 197°
2026-05-04 12:39 38.08591 -4.73240 34998 ft 414 kts 197°
2026-05-04 12:39 38.05752 -4.73824 34742 ft 413 kts 197°
2026-05-04 12:39 38.02912 -4.74406 34487 ft 413 kts 197°
2026-05-04 12:39 38.00079 -4.74981 34238 ft 413 kts 197°
2026-05-04 12:40 37.97242 -4.75553 33503 ft 414 kts 197°
2026-05-04 12:40 37.94392 -4.76132 32644 ft 415 kts 197°
2026-05-04 12:40 37.91545 -4.76712 31773 ft 415 kts 197°
2026-05-04 12:40 37.88688 -4.77294 30862 ft 417 kts 197°
2026-05-04 12:41 37.85821 -4.77876 29935 ft 418 kts 196°
2026-05-04 12:41 37.82942 -4.78458 28945 ft 419 kts 196°
2026-05-04 12:41 37.80057 -4.79040 27906 ft 421 kts 195°
2026-05-04 12:41 37.77102 -4.79335 26820 ft 432 kts 187°
2026-05-04 12:42 37.74070 -4.79010 25749 ft 444 kts 177°
2026-05-04 12:42 37.71068 -4.78059 24969 ft 444 kts 172°
2026-05-04 12:42 37.68147 -4.77017 24146 ft 440 kts 172°
2026-05-04 12:42 37.65210 -4.75987 23346 ft 436 kts 172°
2026-05-04 12:43 37.62290 -4.74968 22574 ft 432 kts 172°
2026-05-04 12:43 37.59404 -4.73967 21836 ft 429 kts 172°
2026-05-04 12:43 37.56538 -4.72975 21118 ft 426 kts 171°
2026-05-04 12:43 37.53722 -4.71997 20876 ft 412 kts 171°
2026-05-04 12:44 37.51013 -4.71048 20748 ft 396 kts 172°
2026-05-04 12:44 37.48404 -4.70133 20634 ft 382 kts 172°
2026-05-04 12:44 37.45889 -4.69253 20518 ft 368 kts 172°
2026-05-04 12:44 37.43462 -4.68409 20392 ft 356 kts 172°
2026-05-04 12:45 37.41116 -4.67595 20267 ft 344 kts 173°
2026-05-04 12:45 37.38852 -4.66775 20120 ft 336 kts 168°
2026-05-04 12:45 37.36726 -4.65521 19841 ft 339 kts 158°
2026-05-04 12:45 37.34695 -4.64041 19541 ft 336 kts 158°
2026-05-04 12:46 37.32683 -4.62566 19257 ft 334 kts 158°
2026-05-04 12:46 37.30685 -4.61097 18973 ft 332 kts 158°
2026-05-04 12:46 37.28694 -4.59650 18692 ft 328 kts 161°
2026-05-04 12:46 37.26611 -4.58613 18429 ft 317 kts 173°
2026-05-04 12:47 37.24472 -4.58168 18167 ft 307 kts 185°
2026-05-04 12:47 37.22357 -4.58136 17915 ft 303 kts 187°
2026-05-04 12:47 37.20252 -4.58122 17646 ft 302 kts 187°
2026-05-04 12:47 37.18151 -4.58106 17392 ft 301 kts 187°
2026-05-04 12:48 37.16061 -4.58089 17137 ft 300 kts 187°
2026-05-04 12:48 37.13974 -4.58072 16904 ft 300 kts 187°
2026-05-04 12:48 37.11889 -4.58058 16657 ft 299 kts 187°
2026-05-04 12:48 37.09834 -4.58043 16402 ft 299 kts 186°
2026-05-04 12:49 37.07758 -4.58027 16148 ft 298 kts 186°
2026-05-04 12:49 37.05689 -4.58008 15883 ft 297 kts 186°
2026-05-04 12:49 37.03621 -4.57988 15570 ft 296 kts 186°
2026-05-04 12:49 37.01571 -4.57968 15271 ft 294 kts 186°
2026-05-04 12:50 36.99529 -4.57952 14973 ft 293 kts 186°
2026-05-04 12:50 36.97495 -4.57937 14671 ft 292 kts 186°
2026-05-04 12:50 36.95461 -4.57856 14375 ft 295 kts 179°
2026-05-04 12:50 36.93454 -4.57174 14069 ft 304 kts 162°
2026-05-04 12:51 36.91628 -4.55761 13769 ft 314 kts 146°
2026-05-04 12:51 36.90047 -4.53843 13481 ft 317 kts 141°
2026-05-04 12:51 36.88489 -4.51900 13191 ft 316 kts 141°
2026-05-04 12:51 36.86931 -4.49965 12887 ft 314 kts 141°
2026-05-04 12:52 36.85382 -4.48050 12583 ft 313 kts 141°
2026-05-04 12:52 36.83849 -4.46157 12289 ft 303 kts 141°
2026-05-04 12:52 36.82386 -4.44343 12000 ft 291 kts 141°
2026-05-04 12:52 36.80946 -4.42566 11704 ft 290 kts 141°
2026-05-04 12:53 36.79513 -4.40805 11401 ft 288 kts 141°
2026-05-04 12:53 36.78105 -4.39076 11122 ft 283 kts 141°
2026-05-04 12:53 36.76699 -4.37353 10820 ft 282 kts 140°
2026-05-04 12:53 36.75307 -4.35643 10521 ft 280 kts 140°
2026-05-04 12:54 36.73931 -4.34006 10214 ft 269 kts 146°
2026-05-04 12:54 36.72375 -4.32796 9925 ft 260 kts 159°
2026-05-04 12:54 36.70766 -4.31818 9768 ft 257 kts 158°
2026-05-04 12:54 36.69157 -4.30833 9641 ft 257 kts 158°
2026-05-04 12:55 36.67559 -4.29846 9514 ft 256 kts 158°
2026-05-04 12:55 36.65960 -4.28860 9395 ft 255 kts 158°
2026-05-04 12:55 36.64367 -4.27881 9286 ft 255 kts 157°
2026-05-04 12:55 36.62774 -4.26898 9124 ft 255 kts 156°
2026-05-04 12:56 36.61316 -4.25627 8908 ft 258 kts 139°
2026-05-04 12:56 36.60137 -4.23942 8783 ft 259 kts 133°
2026-05-04 12:56 36.58980 -4.22213 8626 ft 259 kts 133°
2026-05-04 12:56 36.57835 -4.20515 8454 ft 251 kts 133°
2026-05-04 12:57 36.56696 -4.18895 8312 ft 244 kts 136°
2026-05-04 12:57 36.55554 -4.17383 8173 ft 235 kts 137°
2026-05-04 12:57 36.54441 -4.15947 8045 ft 227 kts 137°
2026-05-04 12:57 36.53349 -4.14552 7902 ft 224 kts 138°
2026-05-04 12:58 36.52266 -4.13153 7758 ft 224 kts 137°
2026-05-04 12:58 36.51233 -4.11753 7672 ft 214 kts 136°
2026-05-04 12:58 36.50267 -4.10409 7507 ft 203 kts 136°
2026-05-04 12:58 36.49354 -4.09134 7377 ft 192 kts 136°
2026-05-04 12:59 36.48490 -4.07933 7246 ft 180 kts 136°
2026-05-04 12:59 36.47687 -4.06817 7150 ft 168 kts 136°
2026-05-04 12:59 36.46919 -4.05756 7073 ft 166 kts 137°
2026-05-04 12:59 36.46147 -4.04690 6979 ft 166 kts 137°
2026-05-04 13:00 36.45376 -4.03625 6872 ft 166 kts 136°
2026-05-04 13:00 36.44607 -4.02560 6779 ft 166 kts 137°
2026-05-04 13:00 36.43837 -4.01499 6684 ft 165 kts 137°
2026-05-04 13:00 36.43068 -4.00440 6574 ft 165 kts 137°
2026-05-04 13:01 36.42302 -3.99384 6446 ft 164 kts 137°
2026-05-04 13:01 36.41538 -3.98331 6346 ft 164 kts 137°
2026-05-04 13:01 36.40700 -3.97399 6234 ft 159 kts 155°
2026-05-04 13:01 36.39687 -3.96932 6132 ft 154 kts 177°
2026-05-04 13:02 36.38641 -3.96952 6018 ft 148 kts 197°
2026-05-04 13:02 36.37698 -3.97409 5924 ft 145 kts 215°
2026-05-04 13:02 36.36922 -3.98199 5831 ft 145 kts 224°
2026-05-04 13:02 36.36180 -3.99026 5726 ft 145 kts 224°
2026-05-04 13:03 36.35427 -3.99858 5618 ft 145 kts 224°
2026-05-04 13:03 36.34709 -4.00724 5499 ft 144 kts 236°
2026-05-04 13:03 36.34291 -4.01833 5393 ft 143 kts 257°
2026-05-04 13:03 36.34266 -4.03068 5296 ft 145 kts 278°
2026-05-04 13:04 36.34646 -4.04222 5202 ft 147 kts 301°
2026-05-04 13:04 36.35315 -4.05176 5124 ft 146 kts 307°
2026-05-04 13:04 36.35994 -4.06109 5028 ft 145 kts 307°
2026-05-04 13:04 36.36670 -4.07042 4939 ft 145 kts 307°
2026-05-04 13:05 36.37343 -4.07974 4831 ft 145 kts 307°
2026-05-04 13:05 36.38013 -4.08903 4729 ft 144 kts 306°
2026-05-04 13:05 36.38681 -4.09825 4650 ft 143 kts 306°
2026-05-04 13:05 36.39347 -4.10745 4566 ft 143 kts 306°
2026-05-04 13:06 36.40011 -4.11662 4473 ft 143 kts 306°
2026-05-04 13:06 36.40672 -4.12574 4368 ft 142 kts 306°
2026-05-04 13:06 36.41332 -4.13490 4299 ft 142 kts 306°
2026-05-04 13:06 36.41992 -4.14406 4213 ft 141 kts 306°
2026-05-04 13:07 36.42648 -4.15315 4117 ft 141 kts 306°
2026-05-04 13:07 36.43304 -4.16224 4011 ft 141 kts 306°
2026-05-04 13:07 36.43955 -4.17126 3900 ft 139 kts 306°
2026-05-04 13:07 36.44604 -4.18027 3792 ft 140 kts 306°
2026-05-04 13:08 36.45252 -4.18929 3696 ft 139 kts 306°
2026-05-04 13:08 36.45898 -4.19824 3617 ft 140 kts 306°
2026-05-04 13:08 36.46544 -4.20717 3564 ft 139 kts 306°
2026-05-04 13:08 36.47189 -4.21612 3511 ft 139 kts 306°
2026-05-04 13:09 36.47823 -4.22494 3425 ft 139 kts 306°
2026-05-04 13:09 36.48476 -4.23401 3357 ft 139 kts 306°
2026-05-04 13:09 36.49120 -4.24295 3270 ft 139 kts 306°
2026-05-04 13:09 36.49762 -4.25183 3182 ft 138 kts 306°
2026-05-04 13:10 36.50402 -4.26073 3094 ft 138 kts 306°
2026-05-04 13:10 36.51038 -4.26959 3001 ft 138 kts 306°
2026-05-04 13:10 36.51667 -4.27834 2913 ft 138 kts 306°
2026-05-04 13:10 36.52307 -4.28723 2829 ft 138 kts 306°
2026-05-04 13:11 36.52946 -4.29610 2744 ft 138 kts 307°
2026-05-04 13:11 36.53584 -4.30498 2664 ft 138 kts 307°
2026-05-04 13:11 36.54220 -4.31389 2577 ft 138 kts 308°
2026-05-04 13:11 36.54857 -4.32277 2491 ft 137 kts 308°
2026-05-04 13:12 36.55493 -4.33165 2395 ft 138 kts 308°
2026-05-04 13:12 36.56132 -4.34056 2313 ft 138 kts 309°
2026-05-04 13:12 36.56567 -4.34662 2256 ft 139 kts 309°
2026-05-04 13:12 36.57210 -4.35559 2191 ft 139 kts 309°
2026-05-04 13:13 36.57857 -4.36461 2114 ft 140 kts 309°
2026-05-04 13:13 36.58504 -4.37362 1997 ft 140 kts 310°
2026-05-04 13:13 36.59160 -4.38275 1737 ft 141 kts 310°
2026-05-04 13:13 36.59813 -4.39185 1565 ft 140 kts 310°
2026-05-04 13:14 36.60449 -4.40071 1757 ft 138 kts 310°
2026-05-04 13:14 36.61110 -4.40995 1840 ft 146 kts 310°
2026-05-04 13:14 36.61790 -4.41943 1522 ft 145 kts 310°
2026-05-04 13:14 36.62458 -4.42877 1294 ft 145 kts 310°
2026-05-04 13:15 36.63130 -4.43815 1081 ft 144 kts 311°
2026-05-04 13:15 36.63797 -4.44745 882 ft 143 kts 311°
2026-05-04 13:15 36.64454 -4.45663 714 ft 142 kts 310°
2026-05-04 13:15 36.65105 -4.46574 511 ft 140 kts 311°
2026-05-04 13:16 36.65751 -4.47475 320 ft 140 kts 311°
2026-05-04 13:16 36.66399 -4.48380 133 ft 140 kts 311°
2026-05-04 13:16 36.67000 -4.49224 47 ft 106 kts 311°
2026-05-04 13:16 36.67293 -4.49631 44 ft 26 kts 312°
2026-05-04 13:17 36.67415 -4.49799 48 ft 26 kts 311°
2026-05-04 13:17 36.67506 -4.49930 46 ft 19 kts 311°
2026-05-04 13:17 36.67592 -4.50047 49 ft 14 kts 315°
2026-05-04 13:17 36.67661 -4.50126 51 ft 13 kts 321°
2026-05-04 13:18 36.67731 -4.50183 51 ft 12 kts 332°
2026-05-04 13:18 36.67796 -4.50218 50 ft 8 kts 340°
2026-05-04 13:18 36.67802 -4.50221 50 ft 0 kts 341°
2026-05-04 13:18 36.67810 -4.50224 48 ft 2 kts 342°
2026-05-04 13:19 36.67824 -4.50229 50 ft 2 kts 344°
2026-05-04 13:19 36.67838 -4.50229 50 ft 2 kts 360°
2026-05-04 13:19 36.67869 -4.50212 49 ft 6 kts 38°
2026-05-04 13:19 36.67888 -4.50165 49 ft 6 kts 72°
2026-05-04 13:20 36.67907 -4.50123 49 ft 5 kts 56°
2026-05-04 13:20 36.67913 -4.50081 49 ft 4 kts 98°
2026-05-04 13:20 36.67900 -4.50051 49 ft 4 kts 122°
2026-05-04 13:20 36.67887 -4.50031 49 ft 3 kts 132°
2026-05-04 13:21 36.67877 -4.50017 49 ft 2 kts 131°
2026-05-04 13:21 36.67841 -4.49965 49 ft 17 kts 130°
2026-05-04 13:21 36.67742 -4.49828 47 ft 19 kts 131°
2026-05-04 13:21 36.67668 -4.49726 48 ft 13 kts 136°
2026-05-04 13:22 36.67622 -4.49647 49 ft 9 kts 101°
2026-05-04 13:22 36.67657 -4.49599 47 ft 7 kts 40°
2026-05-04 13:22 36.67692 -4.49560 47 ft 4 kts 43°
2026-05-04 13:22 36.67694 -4.49557 45 ft 1 kts 41°
2026-05-04 13:23 36.67709 -4.49541 49 ft 0 kts 41°